Weather History for KARW - February, 2013

Change the Weather History Date:

Sunday, February 3, 2013

  Actual Average (KHXD) Record (KHXD)
Temperature  
Mean Temperature 53 °F -  
Max Temperature 62 °F 63 °F - (-1)
Min Temperature 44 °F 41 °F - (-1)
Degree Days  
Heating Degree Days 12    
Growing Degree Days 3 (Base 50)    
Moisture  
Dew Point 30 °F    
Average Humidity 44    
Maximum Humidity 76    
Minimum Humidity 27    
Precipitation  
Precipitation 0.00 in - - ()
Sea Level Pressure  
Sea Level Pressure 30.04 in    
Wind  
Wind Speed 10 mph (West)    
Max Wind Speed 22 mph    
Max Gust Speed 29 mph    
Visibility 10 miles    
Events      
Averages and records for this station are not official NWS values.
T = Trace of Precipitation, MM = Missing Value Source: NWS Daily Summary

Daily Weather History Graph

Daily Weather History Graph

Search for Another Location

Airport or City:

Trip Planner

Search our weather history database for the weather conditions in past years. The results will help you decide how hot, cold, wet, or windy it might be!

Date:

Astronomy

Feb. 03, 2013 Rise Set
Actual Time 7:15 AM EST 5:57 PM EST
Civil Twilight 6:49 AM EST 6:23 PM EST
Nautical Twilight 6:20 AM EST 6:52 PM EST
Astronomical Twilight 5:51 AM EST 7:21 PM EST
Moon 12:40 AM EST (2/3) 11:36 AM EST (2/3)
Length of Visible Light 11h 33m
Length of Day
10h 42m
Waning Gibbous, 49% of the Moon is Illuminated
Feb 3
Waning Gibbous
Feb 10
New
Feb 17
First Quarter
Feb 25
Full
Mar 4
Last Quarter

Hourly Weather History & Observations

Time (EST) Temp. Windchill Dew Point Humidity Pressure Visibility Wind Dir Wind Speed Gust Speed Precip Events Conditions
12:15 AM 44.6 °F 42.2 °F 37.4 °F 76% 30.11 in 10.0 mi SW 4.6 mph - N/A   Mostly Cloudy
12:35 AM 46.4 °F 45.2 °F 35.6 °F 66% 30.10 in 10.0 mi SW 3.5 mph - N/A   Scattered Clouds
12:55 AM 44.6 °F 41.4 °F 33.8 °F 66% 30.10 in 10.0 mi WSW 5.8 mph - N/A   Scattered Clouds
1:15 AM 48.2 °F - 32.0 °F 54% 30.09 in 10.0 mi WSW 6.9 mph - N/A   Mostly Cloudy
1:35 AM 50.0 °F - 30.2 °F 47% 30.08 in 10.0 mi WSW 6.9 mph - N/A   Overcast
1:55 AM 51.8 °F - 28.4 °F 41% 30.07 in 10.0 mi WSW 6.9 mph - N/A   Overcast
2:15 AM 51.8 °F - 28.4 °F 41% 30.07 in 10.0 mi WSW 8.1 mph - N/A   Overcast
2:35 AM 50.0 °F - 28.4 °F 43% 30.06 in 10.0 mi West 9.2 mph - N/A   Scattered Clouds
3:15 AM 48.2 °F - 28.4 °F 46% 30.06 in 10.0 mi WSW 5.8 mph - N/A   Scattered Clouds
3:35 AM 48.2 °F - 28.4 °F 46% 30.06 in 10.0 mi West 8.1 mph - N/A   Overcast
3:55 AM 48.2 °F - 28.4 °F 46% 30.05 in 10.0 mi WSW 9.2 mph - N/A   Mostly Cloudy
4:15 AM 48.2 °F - 28.4 °F 46% 30.04 in 10.0 mi West 13.8 mph 17.3 mph N/A   Clear
4:35 AM 48.2 °F - 28.4 °F 46% 30.04 in 10.0 mi West 9.2 mph - N/A   Clear
4:55 AM 46.4 °F 41.5 °F 28.4 °F 50% 30.05 in 10.0 mi West 10.4 mph - N/A   Clear
5:15 AM 46.4 °F 40.4 °F 30.2 °F 53% 30.06 in 10.0 mi West 13.8 mph - N/A   Clear
5:35 AM 46.4 °F 40.1 °F 32.0 °F 57% 30.08 in 10.0 mi West 15.0 mph 19.6 mph N/A   Clear
5:55 AM 46.4 °F 40.4 °F 32.0 °F 57% 30.07 in 10.0 mi WNW 13.8 mph 26.5 mph N/A   Clear
6:15 AM 44.6 °F 38.4 °F 32.0 °F 61% 30.08 in 10.0 mi West 12.7 mph - N/A   Clear
6:35 AM 44.6 °F 38.1 °F 33.8 °F 66% 30.09 in 10.0 mi West 13.8 mph - N/A   Clear
6:55 AM 44.6 °F 38.1 °F 32.0 °F 61% 30.09 in 10.0 mi West 13.8 mph 23.0 mph N/A   Clear
7:15 AM 44.6 °F 38.4 °F 32.0 °F 61% 30.09 in 10.0 mi West 12.7 mph - N/A   Clear
7:35 AM 44.6 °F 38.8 °F 32.0 °F 61% 30.10 in 10.0 mi West 11.5 mph 18.4 mph N/A   Clear
7:55 AM 44.6 °F 38.1 °F 32.0 °F 61% 30.11 in 10.0 mi West 13.8 mph 18.4 mph N/A   Clear
8:15 AM 46.4 °F 40.4 °F 32.0 °F 57% 30.11 in 10.0 mi West 13.8 mph 19.6 mph N/A   Clear
8:35 AM 46.4 °F 40.4 °F 32.0 °F 57% 30.12 in 10.0 mi West 13.8 mph 24.2 mph N/A   Clear
8:55 AM 48.2 °F - 32.0 °F 54% 30.12 in 10.0 mi West 16.1 mph 23.0 mph N/A   Clear
9:15 AM 50.0 °F - 30.2 °F 47% 30.12 in 10.0 mi West 12.7 mph 23.0 mph N/A   Clear
9:35 AM 50.0 °F - 30.2 °F 47% 30.11 in 10.0 mi West 17.3 mph 23.0 mph N/A   Clear
9:55 AM 50.0 °F - 30.2 °F 47% 30.11 in 10.0 mi WNW 11.5 mph 19.6 mph N/A   Clear
10:15 AM 51.8 °F - 30.2 °F 44% 30.11 in 10.0 mi WNW 12.7 mph 24.2 mph N/A   Clear
10:35 AM 51.8 °F - 30.2 °F 44% 30.11 in 10.0 mi WNW 11.5 mph 20.7 mph N/A   Clear
10:55 AM 53.6 °F - 30.2 °F 41% 30.10 in 10.0 mi WNW 18.4 mph - N/A   Clear
11:15 AM 53.6 °F - 30.2 °F 41% 30.10 in 10.0 mi WNW 13.8 mph 23.0 mph N/A   Clear
11:35 AM 55.4 °F - 28.4 °F 36% 30.09 in 10.0 mi West 19.6 mph 26.5 mph N/A   Clear
11:55 AM 57.2 °F - 28.4 °F 33% 30.07 in 10.0 mi WNW 13.8 mph 26.5 mph N/A   Clear
12:15 PM 57.2 °F - 28.4 °F 33% 30.06 in 10.0 mi WNW 17.3 mph 24.2 mph N/A   Clear
12:35 PM 59.0 °F - 28.4 °F 31% 30.04 in 10.0 mi West 17.3 mph 24.2 mph N/A   Clear
12:55 PM 59.0 °F - 28.4 °F 31% 30.03 in 10.0 mi West 15.0 mph 21.9 mph N/A   Clear
1:15 PM 60.8 °F - 28.4 °F 29% 30.01 in 7.0 mi West 15.0 mph 19.6 mph N/A   Clear
1:55 PM 60.8 °F - 28.4 °F 29% 29.98 in 10.0 mi WSW 15.0 mph 23.0 mph N/A   Clear
2:15 PM 60.8 °F - 28.4 °F 29% 29.98 in 10.0 mi West 15.0 mph 26.5 mph N/A   Clear
2:35 PM 62.6 °F - 28.4 °F 27% 29.97 in 10.0 mi West 16.1 mph 28.8 mph N/A   Clear
2:55 PM 62.6 °F - 28.4 °F 27% 29.96 in 10.0 mi West 16.1 mph 27.6 mph N/A   Clear
3:15 PM 62.6 °F - 28.4 °F 27% 29.96 in 10.0 mi West 13.8 mph 24.2 mph N/A   Clear
3:35 PM 62.6 °F - 28.4 °F 27% 29.96 in 10.0 mi West 17.3 mph 26.5 mph N/A   Clear
3:55 PM 62.6 °F - 28.4 °F 27% 29.96 in 10.0 mi West 16.1 mph 23.0 mph N/A   Clear
4:15 PM 62.6 °F - 28.4 °F 27% 29.96 in 10.0 mi West 18.4 mph 25.3 mph N/A   Clear
4:35 PM 62.6 °F - 28.4 °F 27% 29.96 in 10.0 mi West 11.5 mph 23.0 mph N/A   Clear
4:55 PM 60.8 °F - 28.4 °F 29% 29.96 in 10.0 mi West 19.6 mph 25.3 mph N/A   Clear
5:15 PM 60.8 °F - 28.4 °F 29% 29.96 in 10.0 mi West 21.9 mph 25.3 mph N/A   Clear
5:35 PM 60.8 °F - 28.4 °F 29% 29.96 in 10.0 mi West 13.8 mph 17.3 mph N/A   Clear
5:55 PM 59.0 °F - 28.4 °F 31% 29.97 in 10.0 mi WSW 10.4 mph 16.1 mph N/A   Clear
6:15 PM 59.0 °F - 28.4 °F 31% 29.98 in 10.0 mi WSW 10.4 mph - N/A   Clear
6:35 PM 57.2 °F - 28.4 °F 33% 29.98 in 10.0 mi WSW 8.1 mph - N/A   Clear
6:55 PM 55.4 °F - 28.4 °F 36% 29.98 in 10.0 mi WSW 6.9 mph - N/A   Clear
7:15 PM 55.4 °F - 30.2 °F 38% 29.99 in 10.0 mi WSW 6.9 mph - N/A   Clear
7:55 PM 55.4 °F - 30.2 °F 38% 30.01 in 10.0 mi SW 8.1 mph - N/A   Clear
8:15 PM 53.6 °F - 32.0 °F 44% 30.01 in 10.0 mi SW 5.8 mph - N/A   Clear
8:35 PM 51.8 °F - 32.0 °F 47% 30.01 in 10.0 mi SW 5.8 mph - N/A   Clear
8:55 PM 51.8 °F - 32.0 °F 47% 30.02 in 10.0 mi SW 5.8 mph - N/A   Clear
9:15 PM 51.8 °F - 32.0 °F 47% 30.03 in 10.0 mi WSW 5.8 mph - N/A   Clear
9:35 PM 51.8 °F - 32.0 °F 47% 30.03 in 10.0 mi WSW 6.9 mph - N/A   Clear
9:55 PM 51.8 °F - 32.0 °F 47% 30.04 in 10.0 mi WSW 6.9 mph - N/A   Clear
10:15 PM 51.8 °F - 32.0 °F 47% 30.04 in 10.0 mi WSW 8.1 mph - N/A   Clear
10:35 PM 51.8 °F - 30.2 °F 44% 30.05 in 10.0 mi West 8.1 mph - N/A   Clear
10:55 PM 50.0 °F - 32.0 °F 50% 30.05 in 10.0 mi West 5.8 mph - N/A   Clear
11:15 PM 50.0 °F - 32.0 °F 50% 30.05 in 10.0 mi West 3.5 mph - N/A   Clear
11:35 PM 46.4 °F 45.2 °F 32.0 °F 57% 30.06 in 10.0 mi West 3.5 mph - N/A   Clear
11:55 PM 46.4 °F 45.2 °F 32.0 °F 57% 30.06 in 10.0 mi West 3.5 mph - N/A   Clear